Wind_Speed
18 19 19 20 21 22 25 25 23 23 22 21 19 20 21 23 22 21 16 23 17 4 11 10 10 13 7 5 6 3 6 4 4 8 5 3 4 5 2 5 8 7 7 4 5 5 7 6 3 6 6 4 4 3
15 18 19 19 19 19 20 22 23 22 21 20 19 20 21 22 24 25 19 23 26 8 5 12 26 36 26 23 5 7 8 4 3 4 5 3 4 2 6 4 2 3 6 5 7 6 6 3 4 4 3 4 4 4
13 14 14 15 15 16 18 18 19 18 18 17 18 18 20 21 24 28 26 23 19 9 12 16 16 39 36 33 37 14 13 10 8 7 4 2 5 5 5 4 4 3 3 3 3 4 6 7 4 6 4 6 4 4
12 14 16 15 15 14 14 12 12 13 14 14 17 20 22 24 27 30 33 30 28 3 5 12 25 25 41 41 40 38 23 18 12 3 5 2 3 2 3 2 4 4 6 5 3 5 5 8 6 4 3 3 0 4
12 13 15 15 15 13 13 13 12 12 12 15 17 20 25 29 31 31 37 36 38 11 3 5 8 25 26 28 39 38 31 20 9 5 5 4 2 1 1 2 2 4 6 4 4 7 4 6 5 2 4 5 6 5
12 14 16 16 14 13 12 10 10 10 12 14 17 23 25 33 25 13 2 15 33 30 4 6 4 6 19 16 26 25 18 12 7 4 2 3 1 3 3 4 4 4 5 6 4 5 6 5 5 3 3 4 5 6
16 16 16 15 14 12 9 9 9 10 11 16 17 18 17 9 11 3 4 4 31 28 1 3 4 2 4 3 4 8 6 3 4 3 2 1 1 2 2 3 4 6 7 6 5 4 4 3 5 2 2 5 8 7
19 18 17 15 12 10 9 8 8 9 13 16 17 16 7 8 10 6 3 6 25 8 1 3 3 3 6 2 2 2 2 2 2 2 2 2 1 1 3 4 6 8 4 5 7 7 6 3 4 4 5 5 7 6
22 20 17 14 11 9 7 6 7 9 13 13 14 11 4 5 4 2 2 6 17 6 3 2 2 3 3 2 3 3 2 3 3 3 1 2 1 4 5 8 8 8 5 6 3 5 5 5 6 5 6 7 7 6
24 21 16 13 10 7 6 5 6 8 10 7 6 2 2 2 7 8 4 2 1 2 1 2 1 1 2 2 1 2 3 2 1 3 2 2 4 7 8 8 6 8 9 6 4 2 2 2 5 6 6 5 5 8
23 19 16 13 10 6 4 5 5 7 4 1 1 1 6 9 2 2 1 3 1 2 1 1 2 3 1 2 0 1 1 0 1 3 3 2 3 5 9 14 11 7 5 7 7 5 4 6 7 6 6 6 6 8
20 17 14 11 8 5 4 2 3 4 5 5 5 4 3 2 2 3 1 2 1 2 2 2 3 3 2 2 2 2 2 1 4 3 3 3 3 5 6 7 5 7 9 8 6 7 5 6 7 6 6 6 8 12
16 14 12 9 6 4 3 2 2 5 9 3 1 3 3 3 5 3 2 3 2 1 1 2 1 1 1 1 2 1 3 3 2 1 3 4 1 3 5 4 9 8 8 8 8 8 9 8 10 6 6 11 16 15
15 12 7 6 7 4 1 2 2 5 4 3 3 5 3 4 3 3 3 2 2 2 2 2 2 2 1 1 2 2 3 1 2 3 4 1 3 3 5 5 8 6 8 8 6 6 8 7 6 10 14 17 18 13
12 11 8 7 6 4 3 3 1 5 3 1 1 3 4 2 2 3 1 3 3 2 3 2 3 2 2 2 2 2 2 3 5 4 2 2 5 5 3 3 6 6 6 5 2 5 6 10 10 11 9 10 12 14
11 9 8 7 9 7 5 3 1 2 2 2 3 3 1 1 3 2 2 4 3 2 1 2 2 3 2 3 3 5 3 4 4 3 2 3 4 4 5 4 5 5 6 5 8 10 12 12 11 12 12 10 11 14
8 3 2 8 9 7 8 3 2 3 3 3 3 2 2 2 4 3 2 2 2 2 1 1 3 5 1 1 2 3 4 3 2 1 2 2 5 6 6 6 7 6 5 8 9 9 10 12 14 13 6 6 7 7
6 4 3 4 7 8 5 7 2 3 4 3 2 3 2 2 2 2 2 2 2 2 1 2 1 1 3 3 3 3 2 1 0 1 1 3 4 6 5 8 8 10 8 8 8 8 9 9 7 5 10 9 7 7
7 7 7 10 7 4 2 5 4 3 4 2 2 1 2 2 2 2 2 3 3 2 2 1 1 2 3 3 3 3 2 2 3 2 1 3 6 7 9 11 11 8 9 8 8 6 7 8 8 10 9 9 7 9
12 12 11 14 12 3 3 3 5 3 2 3 1 1 2 3 2 2 2 2 0 2 2 3 3 3 3 3 3 3 2 3 4 3 1 2 6 9 9 9 7 10 10 9 8 10 9 8 8 11 11 9 10 11
4 5 13 13 9 7 3 2 3 3 2 2 2 1 3 2 1 2 2 2 2 2 2 3 3 3 2 2 3 2 3 5 4 4 5 3 3 8 9 10 13 11 7 7 4 7 9 8 12 13 12 12 11 10
4 9 6 12 4 5 3 5 3 1 2 1 1 2 1 2 2 3 2 1 3 4 3 3 2 4 2 3 2 4 6 10 6 5 7 11 4 4 5 10 10 5 8 10 11 10 12 14 13 15 15 12 11 12
4 6 3 4 2 1 6 0 2 3 2 3 1 1 2 2 3 1 1 3 3 3 2 2 2 3 3 3 3 2 5 8 3 3 5 6 8 11 12 12 13 9 5 9 15 13 13 15 16 16 15 13 13 13
3 2 3 3 4 4 2 1 2 2 1 2 2 2 3 3 0 2 3 3 3 2 1 2 3 3 2 3 1 1 1 6 5 4 9 9 4 4 12 12 14 15 16 14 17 16 15 15 17 16 16 16 16 16
4 5 4 5 2 2 3 3 2 1 3 3 2 3 2 1 1 2 3 3 2 3 2 1 1 2 3 1 2 3 6 5 3 3 9 12 8 7 7 12 15 16 14 13 12 14 14 15 16 16 16 18 17 17
2 4 6 5 3 5 5 3 3 5 2 2 4 2 2 2 1 5 2 2 2 2 2 3 3 3 1 2 3 2 6 8 7 1 9 13 13 7 5 4 3 6 13 14 13 13 14 15 15 15 14 15 16 15
3 4 3 3 2 2 2 1 1 3 3 4 2 1 3 1 5 4 2 2 1 2 1 5 6 2 3 3 7 8 11 12 12 9 10 15 15 13 14 9 4 13 15 16 14 13 15 16 15 15 14 13 13 16
5 2 3 3 1 0 3 1 2 4 4 2 4 2 6 7 4 3 3 5 6 4 4 5 6 8 8 9 10 9 9 14 9 8 6 7 11 14 13 11 11 8 10 17 16 13 13 15 16 15 15 13 12 15
2 2 3 1 2 0 4 5 4 3 2 3 5 3 4 3 2 2 4 8 9 8 4 2 3 5 6 6 5 7 14 20 9 6 8 2 0 6 13 14 11 9 8 13 14 10 10 11 11 12 12 11 12 13
3 1 2 1 3 4 4 4 3 2 2 2 2 2 2 3 4 9 9 9 9 5 16 17 14 10 5 5 4 7 13 19 16 8 6 6 9 15 15 15 13 11 9 15 13 10 9 10 10 11 10 12 13 14
1 2 1 2 3 3 4 2 2 1 2 1 2 3 4 3 6 11 17 18 18 17 12 5 7 11 11 7 6 4 5 15 19 16 11 9 11 12 18 18 17 15 17 17 14 14 14 14 13 13 14 14 15 16
0 3 3 1 3 3 2 1 1 1 2 1 3 1 3 3 2 3 2 6 2 2 12 14 7 8 16 17 16 15 13 11 12 14 17 15 11 11 13 18 21 20 20 18 17 17 17 16 15 15 15 15 15 15
2 1 1 0 3 4 2 1 3 3 2 1 3 3 3 4 5 3 2 2 3 5 7 10 13 12 11 14 17 16 15 14 15 14 12 16 15 14 15 17 20 21 20 19 19 18 18 16 16 15 15 16 14 14
Wind_Direction
209 214 216 215 210 212 209 211 213 214 214 218 229 232 232 231 223 218 228 215 203 257 261 255 247 243 239 216 230 310 349 232 229 212 224 213 245 206 177 197 163 162 164 180 188 222 260 214 260 185 210 230 242 225
218 216 210 210 209 212 216 217 216 219 220 225 235 236 235 230 226 223 229 223 224 229 263 281 257 241 235 232 207 214 230 290 297 280 207 171 222 213 165 204 155 169 180 176 170 209 223 245 228 274 269 236 241 216
217 214 212 215 218 215 214 221 231 225 222 229 232 236 237 238 234 227 231 223 219 243 260 252 242 247 244 240 236 243 242 238 237 217 268 238 229 153 170 220 139 199 144 176 149 218 230 225 242 245 274 272 264 191
214 209 204 215 212 215 198 201 205 210 218 232 242 246 250 250 245 240 236 228 214 235 251 261 246 241 245 234 228 226 236 236 260 277 282 224 257 218 173 170 169 182 140 170 278 279 285 274 227 213 246 272 83 79
205 205 197 197 183 188 195 197 206 222 238 253 263 264 264 263 256 247 243 236 213 204 264 260 306 276 260 240 224 226 225 230 228 240 223 192 271 182 103 48 243 186 166 163 213 223 197 251 280 217 204 210 205 158
198 193 190 186 188 193 198 208 225 245 263 274 278 283 275 278 243 214 214 210 209 202 247 258 242 241 278 196 224 220 214 214 215 222 206 234 240 109 142 206 250 216 195 176 210 203 213 248 280 232 233 254 161 161
192 180 181 187 190 192 201 221 242 261 277 283 291 290 301 189 165 166 245 252 190 185 257 243 253 251 292 255 355 160 151 179 196 197 101 108 15 83 114 180 234 220 218 237 221 193 252 220 243 273 206 114 117 107
195 189 191 190 188 196 215 233 253 273 289 296 296 311 317 220 178 256 241 153 160 137 222 256 283 325 9 353 59 85 164 155 25 132 54 92 353 64 243 202 249 258 254 268 255 218 226 220 136 95 104 116 116 123
197 191 194 191 189 202 221 246 274 288 291 298 293 298 203 193 207 183 137 198 183 202 212 206 218 249 356 18 20 10 27 47 320 55 4 72 300 233 215 207 215 227 204 233 271 254 202 186 148 139 141 120 138 147
187 189 190 189 193 205 237 250 275 297 307 292 299 353 344 239 300 300 125 101 7 260 9 170 24 302 47 66 60 86 29 106 115 247 82 160 252 235 238 232 219 231 216 184 118 74 50 233 164 179 166 142 143 158
176 185 187 188 190 211 226 271 305 314 318 319 40 238 291 313 303 42 191 142 243 304 208 191 156 138 270 98 95 59 157 146 127 257 138 251 265 242 241 236 227 208 181 177 148 165 188 194 169 153 146 144 142 140
171 177 182 187 202 216 206 242 297 336 333 316 295 277 257 32 22 60 314 310 133 220 203 161 212 177 195 150 111 215 174 101 225 154 155 260 252 327 305 259 231 164 154 156 152 131 144 145 134 129 128 134 138 147
166 166 173 187 212 216 232 250 279 313 327 287 13 344 51 324 21 94 310 299 319 354 127 86 77 120 22 104 97 126 98 218 99 93 226 228 25 23 29 63 67 63 79 81 77 84 104 96 105 119 118 141 147 138
170 176 189 199 206 210 197 291 264 347 5 43 32 329 145 305 252 205 214 233 266 223 191 187 161 167 166 125 168 136 235 209 237 239 238 307 127 99 67 59 85 70 69 73 73 94 96 98 91 110 134 146 145 137
173 184 198 227 235 207 219 310 284 15 13 305 244 247 221 211 272 272 293 284 254 247 207 186 153 147 176 162 203 98 297 235 211 231 245 213 147 122 100 88 97 103 100 97 81 94 96 110 108 96 109 134 147 145
157 164 208 206 203 210 220 193 215 342 302 247 244 262 315 75 294 301 255 260 244 278 199 132 119 156 204 175 145 214 164 227 250 224 222 121 132 121 121 105 108 115 109 107 104 109 116 118 116 111 101 107 142 154
176 274 203 187 185 183 178 158 167 232 239 218 234 180 176 214 219 259 256 262 302 313 6 107 115 194 120 162 228 176 206 220 232 233 103 111 153 149 132 129 125 117 115 130 130 123 114 125 119 105 99 107 117 139
249 206 143 158 182 180 187 194 222 248 245 230 165 231 203 214 240 249 245 285 333 335 351 7 157 155 181 195 260 238 201 131 33 243 91 99 124 129 138 131 131 125 120 143 144 129 133 126 113 106 124 134 127 135
237 219 221 202 177 183 222 208 210 262 241 216 243 236 216 229 219 233 249 237 231 249 275 253 171 206 230 216 190 204 237 162 201 196 101 137 140 136 129 131 131 127 141 139 141 138 148 149 142 146 151 157 151 163
258 236 211 207 201 195 253 234 204 238 258 243 85 241 199 206 213 210 228 262 356 302 258 222 213 212 192 220 194 190 182 147 146 161 163 143 143 141 146 142 144 143 142 145 144 149 143 142 165 169 169 177 168 180
176 187 186 181 204 235 269 241 250 213 207 189 252 132 262 341 243 215 242 137 188 224 243 217 216 212 210 235 188 153 150 156 177 165 186 150 149 149 147 144 147 149 152 159 160 169 173 185 192 192 186 189 199 202
182 171 164 185 199 203 249 236 216 231 144 247 308 179 270 302 264 238 168 154 241 233 202 191 199 181 190 182 183 178 187 181 160 125 121 128 143 156 163 166 161 172 178 181 182 185 195 207 203 201 199 198 191 188
187 185 188 176 181 131 255 70 190 203 175 238 88 214 274 258 235 74 261 220 246 240 213 190 173 152 152 141 127 123 172 180 166 158 160 168 168 167 166 177 182 177 179 192 198 195 197 207 203 201 201 195 190 188
176 176 169 211 172 241 354 281 228 233 10 173 173 244 239 234 29 60 243 248 257 310 303 188 127 87 67 129 156 219 206 190 132 144 171 151 154 171 179 184 189 195 197 203 201 205 208 201 202 197 194 190 194 193
86 272 124 253 273 177 205 293 281 191 227 215 183 286 260 85 107 255 235 272 322 301 284 16 96 151 158 182 148 230 228 187 160 168 190 184 165 146 165 190 197 203 204 194 186 191 193 202 199 197 197 198 194 198
190 249 161 204 240 185 196 183 210 211 170 191 232 297 30 94 152 250 239 228 224 214 208 197 199 197 228 177 163 178 217 212 203 144 196 195 194 176 176 169 161 201 205 210 202 193 193 198 197 199 197 204 205 204
228 274 227 214 217 166 12 319 164 112 165 203 228 118 85 177 243 253 268 225 219 224 295 282 245 182 204 196 201 216 211 193 199 219 233 212 211 211 199 176 182 210 201 201 208 214 208 199 198 199 200 202 210 212
214 210 182 262 203 359 177 108 177 208 226 199 106 174 186 197 234 234 207 202 211 235 283 269 254 248 232 209 221 236 215 199 198 174 171 198 217 219 223 230 233 233 223 214 210 214 216 215 206 207 205 207 214 209
238 249 112 347 339 24 209 194 219 231 207 147 164 215 237 228 225 202 225 221 220 214 193 221 243 211 217 226 227 234 198 175 157 182 214 215 268 217 211 218 217 207 201 200 199 203 213 210 207 206 205 206 202 197
267 175 109 108 150 229 244 185 233 245 237 196 191 323 316 293 253 240 243 230 198 208 225 231 226 197 199 185 181 205 212 207 200 192 191 203 220 223 195 189 187 195 204 181 179 177 182 182 178 175 181 180 180 179
290 73 108 171 238 244 234 249 282 267 26 328 341 178 238 283 298 259 246 247 244 236 223 213 206 217 213 208 204 211 226 233 231 232 223 228 223 219 199 198 204 200 190 187 185 184 180 176 178 177 176 177 180 180
341 182 147 206 273 278 5 146 261 199 329 341 290 352 335 14 283 285 9 359 326 228 229 228 219 204 235 244 251 241 236 243 249 248 242 232 226 225 225 219 211 201 194 191 188 186 184 182 181 182 180 179 179 182
342 9 228 311 321 315 290 97 12 324 347 287 266 199 217 186 230 257 353 3 331 303 293 289 268 263 262 250 238 242 245 248 252 249 247 232 233 230 216 207 205 196 193 192 188 186 183 183 183 183 181 179 181 185
Height
714 717 721 724 728 731 735 739 743 746 749 752 755 758 760 762 764 767 767 771 774 770 762 766 768 767 766 768 772 767 770 759 754 744 742 735 734 725 724 729 725 736 745 745 746 747 746 714 716 720 717 709 705 703
712 714 718 721 725 728 732 736 739 742 745 748 750 752 754 756 759 762 762 764 768 769 757 757 755 754 755 758 763 762 758 753 756 736 731 731 729 731 720 722 715 733 728 737 737 739 722 711 708 705 706 708 705 703
710 713 716 719 722 725 729 732 734 737 741 743 745 747 748 750 752 754 754 758 763 762 753 750 741 740 746 746 749 753 744 749 746 745 733 722 719 714 716 721 714 714 714 728 724 714 715 712 710 708 704 704 701 703
707 710 713 717 720 723 726 729 731 734 737 739 740 741 742 742 744 746 744 748 752 751 742 722 724 725 723 729 732 729 735 740 736 743 725 714 712 700 709 706 710 709 712 716 725 714 712 708 707 704 705 705 704 707
706 708 711 714 718 721 724 727 729 731 733 734 734 733 732 730 729 730 730 730 734 740 730 719 717 713 711 712 711 716 722 727 733 733 716 707 711 706 714 715 711 707 709 718 720 707 707 705 700 701 704 708 712 712
704 706 709 713 717 720 723 725 726 727 728 728 727 724 718 713 714 721 718 719 721 727 730 721 706 700 694 690 694 698 705 716 721 717 704 704 698 703 711 718 702 699 699 697 702 700 701 699 700 697 699 701 705 710
702 706 709 712 716 719 722 723 724 724 724 723 719 716 711 710 711 714 714 707 711 723 723 717 702 692 688 686 684 692 700 703 707 702 702 702 702 702 715 714 697 696 694 694 696 698 698 697 699 696 697 701 705 711
701 705 708 712 716 718 720 721 721 721 719 717 713 714 711 709 712 710 707 706 709 716 719 709 695 693 690 690 685 693 693 695 700 702 705 704 702 705 711 699 693 688 689 691 692 694 693 693 695 699 701 705 710 714
698 704 708 712 715 717 718 719 718 717 716 714 712 710 710 710 710 707 708 709 710 714 714 709 704 700 695 695 697 695 695 701 704 704 703 705 713 704 690 691 690 688 689 688 688 690 691 693 697 701 705 708 712 715
697 703 707 710 713 715 716 716 716 714 714 712 709 707 709 704 704 704 706 710 713 709 708 708 707 699 700 700 704 704 704 710 714 710 709 714 702 687 679 677 678 682 686 687 689 696 695 698 700 704 703 706 709 713
698 702 706 710 712 714 714 714 713 712 711 711 711 710 703 701 701 703 711 710 712 708 706 703 704 702 699 704 707 706 709 712 712 709 711 708 698 684 672 672 673 677 679 682 684 687 690 695 699 701 704 707 710 713
698 703 706 709 711 713 714 714 712 711 709 708 708 706 705 705 708 708 712 704 702 702 704 702 703 706 704 701 709 710 706 711 703 710 711 707 689 681 679 673 671 673 678 681 682 684 690 694 697 701 704 708 712 715
701 704 707 709 710 711 713 713 713 712 709 707 706 703 709 709 723 716 721 702 710 700 696 694 699 701 702 697 702 702 714 714 705 713 698 686 680 684 683 680 679 680 682 683 686 689 694 696 700 703 708 711 715 718
703 705 707 708 709 711 712 712 713 712 711 713 712 718 715 722 710 709 705 703 695 694 693 695 697 698 700 701 705 700 700 696 692 700 682 679 682 686 686 685 685 689 690 692 695 697 699 702 707 709 710 713 715 719
704 706 708 708 709 710 712 712 712 712 712 713 711 712 703 701 700 698 698 697 693 690 690 692 691 694 696 703 699 699 702 697 700 702 690 688 684 686 689 690 692 694 697 701 702 703 705 708 710 714 715 717 719 721
706 707 707 708 709 710 712 713 713 713 712 711 707 701 704 708 703 701 695 694 688 686 685 685 686 689 693 690 697 700 694 703 700 699 688 684 686 689 692 694 697 699 701 704 705 707 710 712 714 716 718 721 723 725
707 706 705 706 708 710 711 713 714 713 710 702 700 704 708 707 707 700 694 689 686 683 687 686 689 681 690 692 687 691 700 699 689 686 684 685 687 690 693 697 699 702 704 706 708 710 713 715 716 718 722 726 728 729
706 705 705 706 707 709 709 711 711 706 700 699 703 704 697 695 695 694 691 689 688 685 686 682 688 680 700 686 693 693 691 686 688 688 686 687 689 692 694 696 700 703 706 708 710 713 714 717 719 722 724 727 730 732
703 704 705 706 707 707 708 706 706 700 697 699 697 695 692 690 689 689 688 687 686 685 684 685 684 687 689 687 690 689 689 683 687 687 687 689 690 692 695 698 701 704 707 710 712 714 716 718 720 723 726 729 731 734
698 699 702 704 706 707 703 701 699 697 694 693 692 692 690 688 684 684 684 683 683 684 683 681 683 681 683 681 679 680 681 683 685 687 689 690 691 693 696 698 702 705 708 711 713 715 717 720 722 724 726 729 731 734
696 696 700 703 705 705 701 695 694 692 689 692 689 689 690 686 685 682 682 682 683 679 681 678 680 675 675 675 674 675 677 680 683 684 685 689 691 693 696 698 702 705 708 710 713 715 717 719 721 723 725 727 729 731
694 695 697 700 700 700 697 690 689 687 690 688 688 686 691 698 694 686 679 681 680 675 673 673 671 671 674 673 674 673 674 677 679 681 683 685 689 693 695 697 701 704 706 708 710 712 714 716 719 721 724 726 728 731
692 693 693 694 698 701 694 687 687 686 691 688 689 686 692 692 683 678 686 679 676 668 667 667 667 668 670 672 673 674 675 676 678 680 682 684 686 689 692 695 698 701 703 706 707 710 712 714 717 719 722 724 727 729
690 691 695 695 694 702 692 692 685 683 687 682 686 687 683 689 681 686 682 674 672 669 668 667 667 670 672 673 675 675 675 676 677 679 680 683 686 688 690 693 695 697 699 701 704 707 709 711 714 717 719 722 724 727
697 698 698 703 696 692 692 697 693 682 690 691 683 690 685 681 688 692 678 674 668 668 670 668 668 668 671 672 673 674 675 675 677 679 680 681 684 687 689 690 692 694 697 699 702 704 706 709 711 714 716 718 722 725
706 697 697 696 703 689 692 702 704 698 695 694 692 687 686 691 691 687 672 670 666 665 665 666 667 669 669 669 671 673 673 674 676 678 679 680 682 684 686 689 691 693 695 697 699 702 704 706 708 711 713 716 719 722
704 699 682 680 678 677 689 688 679 690 698 696 694 698 703 702 704 680 670 666 665 664 663 664 664 665 666 666 667 668 670 672 674 675 676 678 679 681 683 686 689 689 691 694 697 699 701 703 705 708 711 714 716 718
687 684 692 688 684 682 685 695 694 689 684 677 684 693 697 693 684 670 665 662 662 662 662 662 662 663 663 664 666 667 669 671 673 674 675 677 678 680 682 684 686 687 689 691 694 696 698 700 703 706 708 711 713 716
683 681 681 690 692 687 688 683 682 675 672 675 684 688 681 669 664 663 660 660 660 661 661 661 661 661 662 662 663 664 665 667 671 673 675 679 679 679 679 682 684 685 687 689 692 695 697 699 701 703 706 709 711 714
683 679 679 697 693 687 682 676 680 672 671 670 670 668 667 664 658 658 657 657 657 657 656 657 658 659 660 660 662 663 664 665 667 668 671 674 674 674 676 679 681 684 686 688 691 694 696 698 700 702 705 707 710 713
678 681 680 681 684 680 678 675 674 672 673 674 675 673 670 666 656 652 651 650 650 651 653 655 656 657 659 659 660 661 662 663 664 666 667 668 669 672 674 677 679 681 683 686 689 692 695 697 699 702 704 707 709 712
686 684 683 682 678 675 674 675 677 677 680 672 675 676 672 671 666 656 650 649 649 650 649 651 651 652 653 655 656 657 658 660 661 662 664 665 667 669 671 673 675 678 681 684 687 690 693 696 699 701 704 706 709 712
685 686 683 678 679 676 675 674 677 678 679 679 677 678 672 671 667 654 650 650 650 649 648 648 648 649 649 650 651 652 654 656 657 658 659 661 663 665 666 669 672 675 679 682 685 688 691 695 697 700 703 706 709 712